Location: Katowice
(50.2611°N, 19.0242°E)
Time: 05:20:48
(UTC+02:00)

Transit 2A - All Passes

Search period start: 18 July 2019 00:00
Search period end: 28 July 2019 00:00
Orbit: 594 x 965 km, 66.7° (Epoch: 17 July)

Date Brightness Start Highest point End Pass type
(mag) Time Alt. Az. Time Alt. Az. Time Alt. Az.
18 Jul - 01:35:05 10° NNW 01:39:50 27° NNE 01:44:10 10° E visible
18 Jul - 03:18:17 10° NW 03:23:43 81° WSW 03:28:34 10° SSE visible
18 Jul - 05:03:26 10° WNW 05:05:53 13° WSW 05:08:13 10° SW daylight
18 Jul - 18:01:30 10° S 18:07:10 36° ESE 18:12:37 10° NE daylight
18 Jul - 19:44:03 10° SW 19:50:16 59° NW 19:56:08 10° NNE daylight
18 Jul - 21:30:00 10° WNW 21:34:41 22° NNW 21:39:06 10° NNE visible
18 Jul - 23:16:48 10° NW 23:20:04 15° N 23:23:11 10° NE visible
19 Jul - 01:01:00 10° NNW 01:05:25 23° NNE 01:09:29 10° E visible
19 Jul - 02:44:08 10° NW 02:49:36 75° NE 02:54:27 10° SE visible
19 Jul - 04:28:27 10° WNW 04:32:05 19° WSW 04:35:30 10° SSW daylight
19 Jul - 17:28:06 10° SSE 17:33:14 27° ESE 17:38:11 10° NE daylight
19 Jul - 19:09:45 10° SW 19:16:05 75° NW 19:22:02 10° NE daylight
19 Jul - 20:55:11 10° W 21:00:14 25° NNW 21:04:59 10° NNE daylight
19 Jul - 22:42:10 10° NW 22:45:30 15° N 22:48:41 10° NNE visible
20 Jul - 00:26:51 10° NNW 00:30:57 20° NNE 00:34:45 10° ENE visible
20 Jul - 02:10:01 10° NNW 02:15:25 56° NE 02:20:13 10° SE visible
20 Jul - 03:53:52 10° NW 03:58:14 27° WSW 04:02:15 10° SSW visible
20 Jul - 16:55:00 10° SSE 16:59:20 20° ESE 17:03:33 10° ENE daylight
20 Jul - 18:35:35 10° SSW 18:41:56 86° SE 18:47:55 10° NE daylight
20 Jul - 20:20:26 10° W 20:25:50 30° NW 20:30:55 10° NNE daylight
20 Jul - 22:07:25 10° NW 22:10:56 16° N 22:14:17 10° NNE visible
20 Jul - 23:52:41 10° NNW 23:56:26 18° NNE 23:59:58 10° ENE visible
21 Jul - 01:35:56 10° NNW 01:41:10 43° NE 01:45:51 10° ESE visible
21 Jul - 03:19:27 10° NW 03:24:20 38° WSW 03:28:44 10° S visible
21 Jul - 16:22:24 10° SE 16:25:30 14° ESE 16:28:33 10° ENE daylight
21 Jul - 18:01:34 10° SSW 18:07:50 66° ESE 18:13:46 10° NE daylight
21 Jul - 19:45:46 10° WSW 19:51:29 36° NW 19:56:51 10° NNE daylight
21 Jul - 21:32:35 10° NW 21:36:23 17° NNW 21:40:00 10° NNE visible
21 Jul - 23:18:26 10° NNW 23:21:54 16° NNE 23:25:11 10° NE visible
22 Jul - 01:01:50 10° NNW 01:06:52 34° NE 01:11:23 10° ESE visible
22 Jul - 02:45:10 10° NW 02:50:21 54° WSW 02:54:59 10° SSE visible
22 Jul - 17:27:43 10° S 17:33:47 50° ESE 17:39:32 10° NE daylight
22 Jul - 19:11:13 10° WSW 19:17:11 44° NW 19:22:47 10° NNE daylight
22 Jul - 20:57:43 10° WNW 21:01:52 19° NNW 21:05:48 10° NNE daylight
22 Jul - 22:44:05 10° NNW 22:47:21 15° N 22:50:27 10° NE visible
23 Jul - 00:27:46 10° NNW 00:32:29 28° NNE 00:36:48 10° E visible
23 Jul - 02:10:58 10° NW 02:16:18 76° WSW 02:21:04 10° SSE visible
23 Jul - 03:56:28 10° W 03:58:23 12° WSW 04:00:15 10° SW visible
23 Jul - 16:54:02 10° S 16:59:47 38° ESE 17:05:15 10° NE daylight
23 Jul - 18:36:46 10° SW 18:42:56 56° NW 18:48:43 10° NNE daylight
23 Jul - 20:22:51 10° WNW 20:27:22 21° NNW 20:31:39 10° NNE daylight
23 Jul - 22:09:37 10° NNW 22:12:47 15° N 22:15:48 10° NE visible
23 Jul - 23:53:40 10° NNW 23:58:04 23° NNE 00:02:08 10° E visible
24 Jul - 01:36:48 10° NW 01:42:12 80° NE 01:46:59 10° SE visible
24 Jul - 03:21:15 10° WNW 03:24:36 18° WSW 03:27:45 10° SSW visible
24 Jul - 16:20:35 10° SSE 16:25:49 28° ESE 16:30:51 10° NE daylight
24 Jul - 18:02:26 10° SW 18:08:44 71° NW 18:14:37 10° NE daylight
24 Jul - 19:48:01 10° W 19:52:55 24° NNW 19:57:33 10° NNE daylight
24 Jul - 21:35:01 10° NW 21:38:12 15° N 21:41:16 10° NNE visible
24 Jul - 23:19:33 10° NNW 23:23:37 20° NNE 23:27:24 10° ENE visible
25 Jul - 01:02:41 10° NNW 01:08:01 60° NE 01:12:47 10° SE visible
25 Jul - 02:46:36 10° NW 02:50:46 25° WSW 02:54:36 10° SSW visible
25 Jul - 15:47:25 10° SSE 15:51:56 21° ESE 15:56:16 10° ENE daylight
25 Jul - 17:28:15 10° SW 17:34:34 90° S 17:40:30 10° NE daylight
25 Jul - 19:13:15 10° W 19:18:31 29° NNW 19:23:28 10° NNE daylight
25 Jul - 21:00:16 10° NW 21:03:38 15° N 21:06:51 10° NNE daylight
25 Jul - 22:45:24 10° NNW 22:49:07 18° NNE 22:52:37 10° ENE visible
26 Jul - 00:28:35 10° NNW 00:33:47 45° NE 00:38:26 10° ESE visible
26 Jul - 02:12:09 10° NW 02:16:52 35° WSW 02:21:08 10° S visible
26 Jul - 15:14:41 10° SE 15:18:04 15° ESE 15:21:23 10° ENE daylight
26 Jul - 16:54:12 10° SSW 17:00:28 70° ESE 17:06:21 10° NE daylight
26 Jul - 18:38:34 10° WSW 18:44:10 34° NW 18:49:25 10° NNE daylight
26 Jul - 20:25:27 10° NW 20:29:05 16° NNW 20:32:33 10° NNE daylight
26 Jul - 22:11:10 10° NNW 22:14:36 16° NNE 22:17:50 10° NE visible
26 Jul - 23:54:30 10° NNW 23:59:29 35° NE 00:03:59 10° ESE visible
27 Jul - 01:37:51 10° NW 01:42:54 50° WSW 01:47:26 10° SSE visible
27 Jul - 14:43:20 10° ESE 14:44:17 10° E 14:45:13 10° E daylight
27 Jul - 16:20:18 10° SSW 16:26:24 53° ESE 16:32:09 10° NE daylight
27 Jul - 18:03:59 10° WSW 18:09:51 42° NW 18:15:20 10° NNE daylight
27 Jul - 19:50:34 10° WNW 19:54:34 18° NNW 19:58:21 10° NNE daylight
27 Jul - 21:36:51 10° NNW 21:40:02 15° N 21:43:05 10° NE visible
27 Jul - 23:20:25 10° NNW 23:25:08 29° NNE 23:29:26 10° E visible
